Back to catalog

COSMOS 2087

AliveMilitaryHEO
NORAD 20707·PAYLOAD·🇷🇺 Russia

Launched Jul 25, 1990 from Plesetsk Cosmodrome

Loading…

Next Passes (next 24 hours)

TLE

FreshSource: Space-Track

Epoch: Sep 13, 2026, 04:23 UTC

1 20707U 90064A   26256.18326792 -.00000789  00000-0  00000-0 0  9999
2 20707  67.7578 179.6866 6315740  22.8930 355.8704  2.00388651264592

Track COSMOS 2087 in real time with AllMySat

Download on the App Store